Weather History for KWRB - December, 2012

Change the Weather History Date:

Tuesday, December 18, 2012

  Actual Average Record
Temperature  
Mean Temperature 52 °F -  
Max Temperature 64 °F 56 °F 78 °F (2008)
Min Temperature 37 °F 33 °F 19 °F (2000)
Degree Days  
Heating Degree Days 14    
Growing Degree Days 2 (Base 50)    
Moisture  
Dew Point 43 °F    
Average Humidity 72    
Maximum Humidity 100    
Minimum Humidity 25    
Precipitation  
Precipitation 0.01 in - - ()
Sea Level Pressure  
Sea Level Pressure 29.92 in    
Wind  
Wind Speed 6 mph (West)    
Max Wind Speed 17 mph    
Max Gust Speed 24 mph    
Visibility 10 miles    
Events      
Averages and records for this station are not official NWS values.
T = Trace of Precipitation, MM = Missing Value Source: NWS Daily Summary

Daily Weather History Graph

Daily Weather History Graph

Search for Another Location

Airport or City:

Trip Planner

Search our weather history database for the weather conditions in past years. The results will help you decide how hot, cold, wet, or windy it might be!

Date:

Astronomy

Dec. 18, 2012 Rise Set
Actual Time 7:31 AM EST 5:31 PM EST
Civil Twilight 7:03 AM EST 5:58 PM EST
Nautical Twilight 6:33 AM EST 6:29 PM EST
Astronomical Twilight 6:02 AM EST 6:59 PM EST
Moon 11:27 AM EST (12/18) 11:37 PM EST (12/18)
Length of Visible Light 10h 54m
Length of Day
10h 00m
Waxing Crescent, 34% of the Moon is Illuminated
Dec 18
Waxing Crescent
Dec 20
First Quarter
Dec 28
Full
Jan 4
Last Quarter
Jan 11
New

Hourly Weather History & Observations

Time (EST) Temp. Dew Point Humidity Pressure Visibility Wind Dir Wind Speed Gust Speed Precip Events Conditions
12:55 AM 59.0 °F 57.2 °F 94% 29.78 in 10.0 mi SSW 3.5 mph - N/A   Clear
1:56 AM 57.2 °F 55.4 °F 94% 29.80 in 10.0 mi West 5.8 mph - N/A   Scattered Clouds
2:21 AM 55.4 °F 53.6 °F 94% 29.80 in 1.5 mi West 3.5 mph - N/A   Mostly Cloudy
2:24 AM 55.4 °F 55.4 °F 100% 29.80 in 5.0 mi WSW 3.5 mph - N/A   Mostly Cloudy
2:56 AM 55.4 °F 55.4 °F 100% 29.79 in 10.0 mi SSW 6.9 mph - N/A   Clear
3:57 AM 57.2 °F 55.4 °F 94% 29.81 in 10.0 mi WSW 9.2 mph - N/A   Partly Cloudy
4:55 AM 55.4 °F 55.4 °F 100% 29.81 in 10.0 mi WSW 8.1 mph - N/A   Partly Cloudy
5:55 AM 55.4 °F 53.6 °F 94% 29.84 in 10.0 mi West 6.9 mph - N/A   Clear
6:55 AM 53.6 °F 51.8 °F 94% 29.87 in 10.0 mi West 8.1 mph - 0.01 in   Clear
7:55 AM 53.6 °F 50.0 °F 88% 29.89 in 10.0 mi WNW 8.1 mph - N/A   Clear
8:55 AM 53.6 °F 48.2 °F 82% 29.92 in 10.0 mi WNW 11.5 mph - N/A   Clear
9:55 AM 55.4 °F 44.6 °F 67% 29.95 in 10.0 mi WNW 10.4 mph - N/A   Clear
10:55 AM 59.0 °F 41.0 °F 51% 29.96 in 10.0 mi NW 13.8 mph - N/A   Clear
11:55 AM 60.8 °F 35.6 °F 39% 29.96 in 10.0 mi NW 17.3 mph 24.2 mph N/A   Clear
12:55 PM 62.8 °F 34.5 °F 35% 29.96 in 10.0 mi WNW 8.1 mph - N/A   Clear
1:55 PM 63.5 °F 29.8 °F 28% 29.95 in 10.0 mi West 12.7 mph - N/A   Clear
2:55 PM 64.2 °F 29.3 °F 27% 29.96 in 10.0 mi WNW 9.2 mph - N/A   Clear
3:55 PM 63.9 °F 27.1 °F 25% 29.96 in 10.0 mi WNW 11.5 mph - N/A   Clear
4:55 PM 61.0 °F 28.9 °F 30% 29.97 in 10.0 mi NNW 6.9 mph - N/A   Clear
5:55 PM 55.8 °F 31.8 °F 40% 29.98 in 10.0 mi Calm Calm - N/A   Clear
6:55 PM 50.0 °F 37.4 °F 62% 29.99 in 10.0 mi Calm Calm - N/A   Clear
7:55 PM 46.4 °F 38.5 °F 74% 30.01 in 10.0 mi Calm Calm - N/A   Clear
8:55 PM 43.2 °F 38.3 °F 83% 30.02 in 10.0 mi Calm Calm - N/A   Clear
9:55 PM 40.8 °F 37.2 °F 87% 30.03 in 10.0 mi Calm Calm - N/A   Clear
10:55 PM 39.0 °F 36.3 °F 90% 30.05 in 10.0 mi Calm Calm - N/A   Clear
11:55 PM 37.6 °F 35.4 °F 92% 30.05 in 10.0 mi Calm Calm - N/A   Clear